Time,TemperatureF,DewpointF,PressureIn,WindDirection,WindDirectionDegrees,WindSpeedMPH,WindSpeedGustMPH,Humidity,HourlyPrecipIn,Conditions,Clouds,dailyrainin,SoftwareType,DateUTC
2013-02-14 00:19:00,50.5,48.0,29.80,WNW,296,4.0,10.0,90,0.00,,,0.00,weatherlink.com 1.10,2013-02-14 05:19:00,
2013-02-14 00:34:00,50.5,48.0,29.81,WNW,294,5.0,10.0,90,0.00,,,0.00,weatherlink.com 1.10,2013-02-14 05:34:00,
2013-02-14 00:49:00,50.5,48.0,29.80,NW,311,7.0,11.0,90,0.00,,,0.00,weatherlink.com 1.10,2013-02-14 05:49:00,
2013-02-14 01:04:00,50.3,48.0,29.81,NW,306,6.0,10.0,90,0.00,,,0.00,weatherlink.com 1.10,2013-02-14 06:04:00,
2013-02-14 01:19:00,50.2,47.0,29.80,WNW,298,5.0,10.0,90,0.00,,,0.00,weatherlink.com 1.10,2013-02-14 06:19:00,
2013-02-14 01:34:00,49.8,47.0,29.81,NW,307,4.0,9.0,90,0.00,,,0.00,weatherlink.com 1.10,2013-02-14 06:34:00,
2013-02-14 01:49:00,49.5,47.0,29.81,NW,312,5.0,9.0,90,0.00,,,0.00,weatherlink.com 1.10,2013-02-14 06:49:00,
2013-02-14 02:04:00,49.4,47.0,29.81,NW,315,4.0,10.0,90,0.00,,,0.00,weatherlink.com 1.10,2013-02-14 07:04:00,
2013-02-14 02:19:00,49.1,46.0,29.82,WNW,298,9.0,10.0,89,0.00,,,0.00,weatherlink.com 1.10,2013-02-14 07:19:00,
2013-02-14 02:34:00,49.0,45.0,29.82,North,349,9.0,14.0,87,0.00,,,0.00,weatherlink.com 1.10,2013-02-14 07:34:00,
2013-02-14 02:49:00,48.6,45.0,29.84,NNW,342,9.0,11.0,87,0.00,,,0.00,weatherlink.com 1.10,2013-02-14 07:49:00,
2013-02-14 03:04:00,48.4,44.0,29.84,NW,326,10.0,15.0,85,0.00,,,0.00,weatherlink.com 1.10,2013-02-14 08:04:00,
2013-02-14 03:19:00,48.2,44.0,29.85,NNW,329,5.0,11.0,85,0.00,,,0.00,weatherlink.com 1.10,2013-02-14 08:19:00,
2013-02-14 03:35:00,47.9,44.0,29.87,NNW,348,8.0,11.0,85,0.00,,,0.00,weatherlink.com 1.10,2013-02-14 08:35:00,
2013-02-14 03:49:00,47.5,43.0,29.87,NW,306,6.0,8.0,85,0.00,,,0.00,weatherlink.com 1.10,2013-02-14 08:49:00,
2013-02-14 04:05:00,46.7,43.0,29.89,NW,304,8.0,8.0,85,0.00,,,0.00,weatherlink.com 1.10,2013-02-14 09:05:00,
2013-02-14 04:19:00,45.9,41.0,29.89,NW,325,2.0,8.0,84,0.00,,,0.00,weatherlink.com 1.10,2013-02-14 09:19:00,
2013-02-14 04:34:00,45.5,40.0,29.91,NW,315,3.0,6.0,82,0.00,,,0.00,weatherlink.com 1.10,2013-02-14 09:34:00,
2013-02-14 04:49:00,45.2,40.0,29.92,NNW,343,4.0,9.0,81,0.00,,,0.00,weatherlink.com 1.10,2013-02-14 09:49:00,
2013-02-14 05:05:00,45.3,40.0,29.93,North,355,3.0,6.0,81,0.00,,,0.00,weatherlink.com 1.10,2013-02-14 10:05:00,
2013-02-14 05:20:00,44.7,40.0,29.93,North,355,2.0,4.0,83,0.00,,,0.00,weatherlink.com 1.10,2013-02-14 10:20:00,
2013-02-14 05:34:00,44.0,40.0,29.94,NNW,338,5.0,5.0,84,0.00,,,0.00,weatherlink.com 1.10,2013-02-14 10:34:00,
2013-02-14 05:50:00,43.8,39.0,29.94,NW,326,3.0,6.0,83,0.00,,,0.00,weatherlink.com 1.10,2013-02-14 10:50:00,
2013-02-14 06:05:00,43.5,39.0,29.93,NW,326,0.0,3.0,84,0.00,,,0.00,weatherlink.com 1.10,2013-02-14 11:05:00,
2013-02-14 06:20:00,42.7,39.0,29.94,NW,326,4.0,6.0,86,0.00,,,0.00,weatherlink.com 1.10,2013-02-14 11:20:00,
2013-02-14 06:35:00,42.7,39.0,29.94,NNW,341,3.0,8.0,85,0.00,,,0.00,weatherlink.com 1.10,2013-02-14 11:35:00,
2013-02-14 06:50:00,42.9,38.0,29.95,NNW,346,4.0,6.0,84,0.00,,,0.00,weatherlink.com 1.10,2013-02-14 11:50:00,
2013-02-14 07:05:00,42.9,38.0,29.95,North,355,2.0,6.0,84,0.00,,,0.00,weatherlink.com 1.10,2013-02-14 12:05:00,
2013-02-14 07:20:00,42.7,39.0,29.96,NNW,348,3.0,5.0,85,0.00,,,0.00,weatherlink.com 1.10,2013-02-14 12:20:00,
2013-02-14 07:35:00,42.8,39.0,29.96,NNW,348,2.0,5.0,86,0.00,,,0.00,weatherlink.com 1.10,2013-02-14 12:35:00,
2013-02-14 07:50:00,43.5,39.0,29.98,NNW,348,3.0,6.0,85,0.00,,,0.00,weatherlink.com 1.10,2013-02-14 12:50:00,
2013-02-14 08:05:00,44.5,40.0,29.98,NNW,348,5.0,8.0,83,0.00,,,0.00,weatherlink.com 1.10,2013-02-14 13:05:00,
2013-02-14 08:20:00,45.2,40.0,30.00,North,5,8.0,9.0,83,0.00,,,0.00,weatherlink.com 1.10,2013-02-14 13:20:00,
2013-02-14 08:35:00,45.8,41.0,30.01,NNE,16,8.0,9.0,83,0.00,,,0.00,weatherlink.com 1.10,2013-02-14 13:35:00,
2013-02-14 08:50:00,45.7,41.0,30.01,NNE,15,8.0,12.0,82,0.01,,,0.01,weatherlink.com 1.10,2013-02-14 13:50:00,
2013-02-14 09:05:00,46.0,41.0,30.02,NNE,13,10.0,10.0,83,0.01,,,0.01,weatherlink.com 1.10,2013-02-14 14:05:00,
2013-02-14 09:20:00,46.4,41.0,30.02,NE,36,10.0,15.0,80,0.01,,,0.01,weatherlink.com 1.10,2013-02-14 14:20:00,
2013-02-14 09:35:00,46.8,41.0,30.00,NE,40,11.0,16.0,79,0.01,,,0.01,weatherlink.com 1.10,2013-02-14 14:35:00,
2013-02-14 09:50:00,47.1,41.0,30.01,North,9,6.0,13.0,80,0.00,,,0.01,weatherlink.com 1.10,2013-02-14 14:50:00,
2013-02-14 10:05:00,47.3,41.0,30.01,NNE,15,8.0,11.0,78,0.00,,,0.01,weatherlink.com 1.10,2013-02-14 15:05:00,
2013-02-14 10:20:00,48.0,41.0,30.02,NE,42,9.0,11.0,77,0.00,,,0.01,weatherlink.com 1.10,2013-02-14 15:20:00,
2013-02-14 10:35:00,48.7,41.0,30.03,North,355,4.0,10.0,76,0.00,,,0.01,weatherlink.com 1.10,2013-02-14 15:35:00,
2013-02-14 10:50:00,49.0,41.0,30.03,NNE,13,3.0,10.0,74,0.00,,,0.01,weatherlink.com 1.10,2013-02-14 15:50:00,
2013-02-14 11:05:00,49.1,42.0,30.02,North,5,3.0,10.0,75,0.00,,,0.01,weatherlink.com 1.10,2013-02-14 16:05:00,
2013-02-14 11:20:00,49.6,42.0,30.02,NNE,26,7.0,9.0,74,0.00,,,0.01,weatherlink.com 1.10,2013-02-14 16:20:00,
2013-02-14 11:35:00,49.6,42.0,30.02,NNE,23,4.0,10.0,74,0.00,,,0.01,weatherlink.com 1.10,2013-02-14 16:35:00,
2013-02-14 11:50:00,50.2,41.0,30.03,North,5,3.0,7.0,72,0.00,,,0.01,weatherlink.com 1.10,2013-02-14 16:50:00,
2013-02-14 12:05:00,50.8,43.0,30.03,NNW,336,4.0,8.0,74,0.00,,,0.01,weatherlink.com 1.10,2013-02-14 17:05:00,
2013-02-14 12:20:00,50.9,43.0,30.02,North,360,5.0,8.0,73,0.00,,,0.01,weatherlink.com 1.10,2013-02-14 17:20:00,
2013-02-14 12:35:00,50.4,42.0,30.02,NNW,343,7.0,9.0,73,0.00,,,0.01,weatherlink.com 1.10,2013-02-14 17:35:00,
2013-02-14 12:50:00,50.8,42.0,30.02,North,355,6.0,8.0,72,0.00,,,0.01,weatherlink.com 1.10,2013-02-14 17:50:00,
2013-02-14 13:05:00,50.6,41.0,30.01,North,355,5.0,7.0,71,0.00,,,0.01,weatherlink.com 1.10,2013-02-14 18:05:00,
2013-02-14 13:20:00,51.0,42.0,30.01,North,351,3.0,8.0,72,0.00,,,0.01,weatherlink.com 1.10,2013-02-14 18:20:00,
2013-02-14 13:35:00,51.1,42.0,30.01,North,355,2.0,7.0,71,0.00,,,0.01,weatherlink.com 1.10,2013-02-14 18:35:00,
2013-02-14 13:50:00,52.1,43.0,30.02,NNW,333,3.0,3.0,70,0.00,,,0.01,weatherlink.com 1.10,2013-02-14 18:50:00,
2013-02-14 14:05:00,51.7,43.0,30.00,North,350,4.0,8.0,71,0.00,,,0.01,weatherlink.com 1.10,2013-02-14 19:05:00,
2013-02-14 14:20:00,51.6,43.0,29.99,NNE,19,3.0,7.0,72,0.00,,,0.01,weatherlink.com 1.10,2013-02-14 19:20:00,
2013-02-14 14:35:00,51.8,42.0,29.99,North,11,5.0,7.0,69,0.00,,,0.01,weatherlink.com 1.10,2013-02-14 19:35:00,
2013-02-14 14:50:00,51.6,42.0,30.00,North,11,3.0,5.0,69,0.00,,,0.01,weatherlink.com 1.10,2013-02-14 19:50:00,
2013-02-14 15:05:00,52.3,42.0,30.00,NNE,12,1.0,4.0,67,0.00,,,0.01,weatherlink.com 1.10,2013-02-14 20:05:00,
2013-02-14 15:20:00,52.0,40.0,30.01,NNE,12,0.0,3.0,64,0.00,,,0.01,weatherlink.com 1.10,2013-02-14 20:20:00,
2013-02-14 15:35:00,52.7,42.0,30.01,NNE,12,2.0,4.0,66,0.00,,,0.01,weatherlink.com 1.10,2013-02-14 20:35:00,
2013-02-14 15:51:00,52.1,43.0,29.99,SE,139,3.0,8.0,70,0.00,,,0.01,weatherlink.com 1.10,2013-02-14 20:51:00,
2013-02-14 16:05:00,52.1,42.0,29.99,SE,142,3.0,10.0,69,0.00,,,0.01,weatherlink.com 1.10,2013-02-14 21:05:00,
2013-02-14 16:21:00,51.3,42.0,29.98,SSE,148,4.0,9.0,70,0.00,,,0.01,weatherlink.com 1.10,2013-02-14 21:21:00,
2013-02-14 16:35:00,50.5,42.0,30.00,SE,136,3.0,7.0,73,0.00,,,0.01,weatherlink.com 1.10,2013-02-14 21:35:00,
2013-02-14 16:50:00,50.0,42.0,30.01,SSE,167,5.0,8.0,73,0.00,,,0.01,weatherlink.com 1.10,2013-02-14 21:50:00,
2013-02-14 17:06:00,49.4,41.0,30.02,SE,137,3.0,6.0,74,0.00,,,0.01,weatherlink.com 1.10,2013-02-14 22:06:00,
2013-02-14 17:20:00,49.0,42.0,30.02,SE,140,3.0,4.0,76,0.00,,,0.01,weatherlink.com 1.10,2013-02-14 22:20:00,
2013-02-14 17:36:00,48.6,41.0,30.02,SE,134,0.0,4.0,76,0.00,,,0.01,weatherlink.com 1.10,2013-02-14 22:36:00,
2013-02-14 17:51:00,47.9,41.0,30.02,SE,134,1.0,6.0,77,0.00,,,0.01,weatherlink.com 1.10,2013-02-14 22:51:00,
2013-02-14 18:05:00,47.4,41.0,30.02,SE,134,0.0,4.0,79,0.00,,,0.01,weatherlink.com 1.10,2013-02-14 23:05:00,
2013-02-14 18:20:00,46.9,41.0,30.02,SE,134,0.0,3.0,80,0.00,,,0.01,weatherlink.com 1.10,2013-02-14 23:20:00,
2013-02-14 18:35:00,46.2,41.0,30.02,SE,134,2.0,5.0,82,0.00,,,0.01,weatherlink.com 1.10,2013-02-14 23:35:00,
2013-02-14 18:50:00,45.8,41.0,30.04,SE,136,1.0,5.0,83,0.00,,,0.01,weatherlink.com 1.10,2013-02-14 23:50:00,
2013-02-14 19:05:00,46.2,41.0,30.04,SE,138,0.0,5.0,82,0.00,,,0.01,weatherlink.com 1.10,2013-02-15 00:05:00,
2013-02-14 19:20:00,46.1,41.0,30.04,SE,138,0.0,2.0,83,0.00,,,0.01,weatherlink.com 1.10,2013-02-15 00:20:00,
2013-02-14 19:36:00,45.5,41.0,30.05,SE,138,0.0,2.0,84,0.00,,,0.01,weatherlink.com 1.10,2013-02-15 00:36:00,
2013-02-14 19:51:00,45.4,41.0,30.04,SE,138,0.0,2.0,84,0.00,,,0.01,weatherlink.com 1.10,2013-02-15 00:51:00,
2013-02-14 20:06:00,45.1,41.0,30.04,SE,138,0.0,0.0,85,0.00,,,0.01,weatherlink.com 1.10,2013-02-15 01:06:00,
2013-02-14 20:21:00,44.7,41.0,30.05,SE,138,0.0,2.0,86,0.00,,,0.01,weatherlink.com 1.10,2013-02-15 01:21:00,
2013-02-14 20:36:00,44.6,41.0,30.06,SE,138,1.0,3.0,87,0.00,,,0.01,weatherlink.com 1.10,2013-02-15 01:36:00,
2013-02-14 20:51:00,44.4,41.0,30.07,SE,138,0.0,2.0,88,0.00,,,0.01,weatherlink.com 1.10,2013-02-15 01:51:00,
2013-02-14 21:06:00,44.4,41.0,30.07,SE,138,0.0,0.0,89,0.00,,,0.01,weatherlink.com 1.10,2013-02-15 02:06:00,
2013-02-14 21:21:00,44.3,41.0,30.07,SE,138,0.0,0.0,89,0.00,,,0.01,weatherlink.com 1.10,2013-02-15 02:21:00,
2013-02-14 21:36:00,44.0,41.0,30.08,SE,138,0.0,2.0,89,0.00,,,0.01,weatherlink.com 1.10,2013-02-15 02:36:00,
2013-02-14 21:51:00,43.6,41.0,30.07,SE,138,0.0,3.0,89,0.00,,,0.01,weatherlink.com 1.10,2013-02-15 02:51:00,
2013-02-14 22:06:00,43.3,41.0,30.08,SE,138,0.0,2.0,90,0.00,,,0.01,weatherlink.com 1.10,2013-02-15 03:06:00,
2013-02-14 22:21:00,43.1,40.0,30.06,SE,138,0.0,0.0,90,0.00,,,0.01,weatherlink.com 1.10,2013-02-15 03:21:00,
2013-02-14 22:36:00,43.2,41.0,30.05,SE,138,0.0,0.0,90,0.00,,,0.01,weatherlink.com 1.10,2013-02-15 03:36:00,
2013-02-14 22:51:00,42.9,40.0,30.04,SE,138,1.0,1.0,90,0.00,,,0.01,weatherlink.com 1.10,2013-02-15 03:51:00,
2013-02-14 23:06:00,42.8,40.0,30.04,SE,138,0.0,1.0,90,0.00,,,0.01,weatherlink.com 1.10,2013-02-15 04:06:00,
2013-02-14 23:21:00,42.7,40.0,30.05,SE,138,0.0,2.0,90,0.00,,,0.01,weatherlink.com 1.10,2013-02-15 04:21:00,
2013-02-14 23:36:00,42.6,40.0,30.04,SE,138,0.0,2.0,90,0.00,,,0.01,weatherlink.com 1.10,2013-02-15 04:36:00,
2013-02-14 23:51:00,42.7,40.0,30.04,South,173,3.0,5.0,90,0.00,,,0.01,weatherlink.com 1.10,2013-02-15 04:51:00,